Location: Clover
(42.5131°N, 114.6874°W)
Time: 10:11:27
(UTC+00:00)

Courier 1B - Pass Details

Date: 09 November 2024
Orbit: 962 x 1208 km, 28.3° (Epoch: 08 December)

Event Time Altitude Azimuth Distance (km) Brightness Sun altitude
Rises 01:10:55 0° 241° (WSW) 3,639 12.3 -9.3°
Reaches altitude 10° 01:14:03 10° 227° (SW) 2,709 10.9 -9.8°
Maximum altitude 01:19:03 23° 177° (S) 1,954 9.2 -10.7°
Drops below altitude 10° 01:24:12 10° 127° (SE) 2,807 9.5 -11.7°
Enters shadow 01:25:51 - 119° (ESE) 3,282 9.8 -12.0°
